Vorticity
nan nan nan nan nan nan nan nan nan nan nan nan nan nan nan nan nan nan nan nan nan nan nan nan nan nan nan nan nan nan nan nan nan nan nan nan nan nan nan nan nan nan nan nan nan nan nan nan nan
nan 3 3 7 8 5 10 12 13 13 10 9 4 7 9 8 15 13 10 11 4 3 5 8 8 6 5 5 6 6 5 5 5 5 6 5 6 6 6 6 6 7 6 5 5 5 4 4 nan
nan 1 4 7 7 6 10 9 10 9 8 1 3 3 11 10 9 7 10 7 4 4 7 10 7 6 5 6 6 6 6 6 6 5 5 5 6 7 5 5 5 5 5 6 5 5 4 4 nan
nan 5 6 6 6 7 8 11 5 1 2 9 10 4 8 8 11 14 10 4 4 5 8 9 6 7 6 6 5 6 7 7 6 6 6 7 6 6 4 5 6 5 5 6 5 5 4 5 nan
nan 6 8 9 10 12 12 12 6 1 6 13 8 2 3 16 17 10 4 4 4 5 7 7 8 7 7 6 7 5 7 6 6 7 5 6 6 5 5 5 6 7 5 4 6 4 4 3 nan
nan 9 7 10 12 11 14 9 5 9 13 6 4 7 12 16 5 4 5 6 5 5 6 8 7 5 7 6 7 6 6 7 8 6 7 7 6 5 5 6 7 7 5 4 4 5 4 3 nan
nan 8 8 11 7 2 8 11 6 6 6 6 5 3 13 8 6 6 3 6 6 4 5 6 8 7 5 4 7 6 6 6 7 8 7 7 6 6 6 6 7 7 5 5 5 4 3 4 nan
nan 2 6 10 5 1 5 14 4 -0 6 8 2 9 12 7 5 5 6 5 5 5 5 5 6 6 5 7 7 6 6 6 6 7 7 6 3 3 2 5 7 5 5 5 5 4 5 5 nan
nan 7 7 8 5 0 8 5 1 11 14 0 8 18 11 9 4 4 4 5 5 5 5 6 6 6 6 8 7 6 5 5 4 5 3 -1 3 5 5 7 6 5 5 5 5 5 4 4 nan
nan 7 8 5 2 6 9 1 12 16 -0 4 17 12 12 6 3 4 4 5 5 6 6 6 6 6 6 6 6 5 3 4 5 5 3 4 8 7 7 7 5 4 4 4 4 4 4 4 nan
nan 6 8 9 8 9 10 5 9 5 7 14 7 6 4 3 4 3 5 7 7 4 6 6 6 8 7 7 5 6 6 6 7 7 5 6 6 6 6 5 4 6 5 4 6 7 7 8 nan
nan 10 7 10 19 16 6 6 9 12 14 8 5 7 7 3 5 4 7 7 8 8 6 7 6 5 8 8 7 7 8 8 7 8 7 6 7 7 6 7 6 6 7 9 7 6 8 9 nan
nan 11 7 8 8 10 9 10 8 9 10 8 6 7 2 3 7 8 7 8 6 7 8 8 5 6 6 6 6 8 9 8 8 8 7 6 7 7 6 6 7 8 7 9 8 6 7 11 nan
nan 11 6 6 8 8 11 3 9 10 6 12 5 3 9 6 3 7 7 6 7 7 7 7 6 5 5 6 6 7 7 10 11 8 9 7 7 8 7 8 7 6 6 8 7 6 7 9 nan
nan 0 8 9 4 6 2 7 11 5 18 15 1 3 13 11 8 5 4 5 7 5 7 6 5 8 9 6 6 7 6 9 8 11 11 8 9 8 9 10 10 8 8 6 6 7 7 8 nan
nan 4 9 6 7 4 -1 12 4 6 17 12 5 2 13 15 7 5 6 5 7 7 6 7 9 8 8 6 7 7 7 7 5 10 12 10 9 8 8 9 8 9 8 6 6 7 8 9 nan
nan 11 5 9 7 4 7 8 12 7 11 12 4 6 13 13 7 7 8 7 6 6 6 7 7 8 7 7 8 8 8 5 7 8 10 9 7 8 9 9 8 8 8 7 8 8 7 8 nan
nan 5 12 17 15 3 5 11 11 9 10 8 -2 7 14 9 7 11 8 6 6 5 8 8 7 8 6 6 6 8 9 8 9 9 8 7 7 6 8 7 7 9 9 7 7 9 11 9 nan
nan 7 14 16 15 8 8 13 8 10 12 7 0 10 14 10 6 8 10 6 3 5 8 8 7 8 4 6 8 8 9 8 9 11 9 7 7 6 6 6 6 6 9 8 8 8 8 9 nan
nan 11 5 3 11 16 10 6 10 14 14 7 -4 9 15 10 8 8 10 6 5 6 7 7 7 7 5 7 9 9 9 9 9 10 9 8 7 7 6 6 7 6 6 7 8 9 9 10 nan
nan 11 7 6 -1 8 11 4 4 15 16 2 -1 1 18 17 6 7 8 5 5 7 9 8 7 7 7 8 6 7 8 10 10 9 9 10 9 8 8 8 8 9 8 7 7 6 9 10 nan
nan 15 19 7 0 6 3 10 9 12 11 9 1 -2 17 15 8 8 6 8 5 7 8 6 6 7 8 7 7 9 8 7 8 9 9 11 9 8 8 10 9 8 8 8 9 8 9 8 nan
nan 20 15 -0 5 10 9 8 15 14 6 11 6 1 4 14 18 7 7 6 5 8 8 6 6 6 8 8 8 7 8 8 10 10 10 8 9 10 8 9 8 7 8 8 8 9 9 9 nan
nan 3 3 8 10 8 15 6 12 10 12 9 6 6 6 2 11 20 13 6 6 5 8 7 7 6 7 8 10 8 7 6 7 9 8 8 10 9 9 8 7 7 7 7 8 8 8 7 nan
nan -0 2 7 11 13 11 5 12 15 15 16 15 11 3 4 8 23 19 7 8 8 6 7 6 7 9 8 8 8 8 8 6 7 8 8 8 10 11 8 7 7 9 7 7 7 6 8 nan
nan 9 7 9 7 11 9 8 10 11 11 11 11 11 12 19 17 11 17 18 12 8 6 6 5 8 8 7 8 9 7 8 9 8 8 8 8 9 9 9 9 8 8 8 7 7 7 8 nan
nan 9 12 5 9 13 4 8 12 9 9 11 10 5 7 12 18 9 7 15 17 17 14 11 7 8 11 12 11 8 7 8 9 8 6 8 7 9 11 12 8 7 7 8 8 7 7 8 nan
nan 4 6 13 14 6 11 12 6 9 6 6 7 11 10 11 7 11 9 6 9 14 16 13 11 11 10 9 10 14 11 6 8 9 9 9 9 9 9 10 10 9 8 8 8 7 7 8 nan
nan 11 11 14 9 11 9 7 18 20 5 5 7 9 9 10 12 10 8 9 8 10 13 10 9 8 7 7 9 11 11 11 10 8 11 10 10 9 8 8 8 8 8 10 9 7 8 7 nan
nan nan nan nan nan nan nan nan nan nan nan nan nan nan nan nan nan nan nan nan nan nan nan nan nan nan nan nan nan nan nan nan nan nan nan nan nan nan nan nan nan nan nan nan nan nan nan nan nan
CAPE
15 3 4 48 62 54 64 97 156 76 64 31 0 29 43 111 104 7 240 315 811 1106 1584 2054 2488 2337 2236 2073 1986 2103 2346 2208 2154 2558 2651 2759 2444 2511 2645 2505 2283 2479 2531 2143 1994 2013 1938 1698 1568
0 5 150 201 62 72 76 157 107 83 32 27 29 84 107 134 190 232 188 485 911 1287 1459 1777 2407 2218 1833 1733 1628 1590 1630 2092 2371 2252 2486 2682 2594 2704 2533 2482 2479 2451 2690 2400 2040 1961 1769 1419 1234
0 1 136 145 1 79 46 128 29 30 35 43 10 63 154 274 276 183 184 732 824 859 1323 1523 2195 2161 2047 1947 2192 1855 1566 1498 2010 2266 2196 2305 2608 2510 2484 2423 2346 2388 2758 1964 1938 1873 1808 1480 1205
7 213 207 179 7 79 91 56 4 0 18 81 106 138 177 73 93 182 336 452 410 784 1188 2050 1884 1930 2045 2109 2053 1924 1779 2060 1746 2051 2144 2353 2508 2537 2528 2499 2364 2336 2297 2048 1698 1683 1858 1971 1963
104 162 23 204 81 36 59 11 0 0 11 85 97 95 50 0 153 212 204 256 586 1113 1390 1420 2403 2055 1982 1927 1918 1853 1338 1649 1791 1844 1924 2184 2209 2405 2339 2354 2312 2363 2284 2195 1938 1891 1983 1918 1915
113 272 70 99 170 299 220 10 0 4 27 23 38 43 0 0 42 131 365 677 868 1170 1331 1516 1985 2026 2104 1851 1842 1754 1595 2121 1933 1907 2156 2086 2299 2444 2343 2277 2366 2453 2307 2238 2039 1863 1731 1768 2102
179 196 215 140 259 282 495 38 4 28 6 0 0 24 0 0 104 382 615 824 1039 1169 1138 1328 1435 1632 1756 1829 1799 1771 1798 1937 1874 1909 2068 2319 2261 2232 2260 2466 2548 2400 2326 2159 1982 1756 1608 1567 1774
341 136 16 126 165 452 292 38 0 21 20 0 0 0 0 0 261 362 445 597 677 959 1196 1145 1045 1104 1230 1541 1829 1832 1942 1892 1788 1845 2013 2017 2355 2135 2264 2930 2955 2239 2164 2141 1952 1821 1643 1461 1562
194 51 23 2 153 272 521 161 301 467 24 1 0 0 6 133 174 127 345 503 565 729 947 1011 903 1009 1030 1258 1532 1739 1889 1777 1646 1849 1786 1866 1234 1717 1785 2356 2675 2152 2167 2203 2170 1917 1574 1529 1536
139 0 20 32 119 257 515 304 167 102 5 19 0 19 108 142 87 215 351 394 469 627 848 829 783 777 1017 1432 1257 1136 1488 1007 954 1045 1180 947 911 1338 1664 2066 2398 2246 2208 2145 2038 1938 1876 1946 1281
5 0 27 8 7 1 527 388 514 62 83 3 9 43 22 83 106 280 140 339 481 704 672 748 659 694 725 1081 877 1000 905 797 783 756 636 773 809 1396 1303 1548 1569 1428 1995 1506 1965 1765 1664 1642 1494
4 140 143 486 401 107 417 406 193 143 92 19 1 36 94 169 128 121 102 188 249 454 690 549 456 207 109 487 569 580 688 804 788 752 527 416 680 864 1067 1031 935 850 978 531 1181 524 686 568 602
169 220 166 310 421 521 490 369 171 114 77 44 10 99 150 47 15 108 153 262 337 324 517 386 117 0 0 6 120 261 574 644 642 528 946 377 735 477 643 850 924 793 373 433 455 639 296 323 78
0 373 580 376 377 477 390 156 129 65 67 64 9 6 49 47 47 107 279 325 257 389 358 94 54 0 0 0 54 1 202 453 541 656 623 631 732 384 598 606 771 568 1073 887 225 491 990 661 85
437 247 57 387 202 363 150 63 75 502 574 16 16 14 11 47 135 182 322 242 486 555 315 71 2 0 0 0 54 7 430 271 645 745 996 768 431 641 747 757 807 825 669 51 186 1016 481 680 614
116 200 322 373 64 286 17 58 183 391 371 9 42 24 18 123 221 235 235 183 508 524 457 258 167 0 0 3 153 10 21 102 166 727 772 649 502 361 1197 1066 883 682 716 486 1216 255 179 936 851
0 11 47 37 126 117 89 42 83 290 438 264 108 37 20 92 162 256 310 341 468 456 468 305 140 203 89 268 54 0 0 0 63 827 1105 1038 1276 1310 1063 1195 918 1004 1080 695 410 642 543 598 277
0 2 240 348 252 152 92 29 148 301 305 103 105 150 57 57 48 137 227 302 210 257 49 544 317 397 273 258 26 20 69 120 511 835 907 1163 1238 859 946 1343 1120 979 559 518 283 545 1108 821 385
0 0 283 269 183 239 64 67 116 190 117 3 147 179 46 70 52 19 157 134 85 0 141 251 284 383 363 327 243 257 324 512 463 373 1018 978 1165 675 684 1012 1041 829 738 554 997 1322 1005 983 667
0 0 138 273 64 144 83 47 72 166 132 79 141 166 30 86 38 52 182 143 83 40 238 238 481 253 290 794 700 677 736 693 483 272 1082 1106 1172 609 455 728 897 1091 782 980 985 1175 1301 707 196
0 0 150 355 267 136 60 48 84 122 95 113 177 111 135 47 22 33 176 183 97 190 384 512 593 167 324 706 458 262 357 675 846 856 789 1018 1056 1024 1110 975 794 980 934 958 937 1231 1564 1343 829
0 0 179 146 76 2 73 5 30 55 123 169 181 115 145 20 17 34 123 179 106 260 377 574 564 525 719 415 235 264 541 603 645 644 807 1026 949 1081 1192 1161 873 1071 875 1004 1272 1574 1451 1242 1663
0 322 279 124 29 10 15 15 0 3 75 77 101 78 113 63 7 0 128 163 156 288 481 460 522 502 990 928 290 153 271 225 300 611 1032 989 972 1038 922 1111 1178 682 445 652 1082 1565 1228 1656 1832
286 252 154 82 53 47 42 24 64 10 12 107 127 73 179 16 138 6 160 159 160 282 600 434 370 382 618 814 584 258 3 30 205 576 858 860 825 1064 969 971 977 884 776 590 1354 1338 1347 1331 1801
28 199 30 62 7 2 4 31 3 19 29 67 124 70 27 2 45 182 62 122 146 278 562 736 460 564 825 680 768 220 0 0 374 528 801 803 771 864 1035 1058 952 790 705 831 1324 1348 1260 1319 1438
0 0 2 1 5 0 0 2 237 13 4 0 19 131 86 217 127 344 277 115 151 227 407 980 585 705 893 772 784 188 50 287 399 364 509 669 716 530 691 1095 1214 1167 911 939 1162 950 1172 1220 1354
0 2 0 0 0 16 162 170 111 62 30 136 52 170 122 106 264 224 409 470 178 143 318 738 936 806 705 1145 802 550 316 151 31 76 557 795 442 311 1055 1142 1230 1191 1206 1163 1192 1197 1143 1105 1292
0 0 0 0 0 2 81 173 116 109 143 64 9 14 67 140 198 198 136 236 241 202 440 488 404 266 0 74 276 826 537 319 25 0 257 514 303 621 669 713 1126 1231 1078 989 1187 862 1114 1267 1208
0 0 0 0 0 0 84 102 147 52 2 0 0 3 44 116 46 13 13 84 87 89 59 0 0 0 0 0 60 170 572 1114 977 1177 894 784 371 241 16 453 296 826 1166 1188 1043 654 1276 971 1092
0 0 0 0 0 0 40 179 4 0 0 0 0 0 14 51 58 6 3 8 46 13 2 4 0 0 0 0 11 150 530 754 1239 1247 808 613 456 178 0 33 1 6 479 960 1160 1111 1275 808 1024